1530720000.65,896,19.63,74172.0,8.97,3.03,3.37,0,*7B
1530720001.9,897,19.69,74172.5,8.97,3.15,3.41,0,*7C
1530720003.15,898,19.63,74170.8,8.97,3.15,3.41,0,*73
1530720004.39,899,19.69,74174.3,8.97,3.41,3.71,0,*70
1530720005.58,900,19.69,74174.0,8.97,3.25,3.59,0,*79
1530720006.77,901,19.63,74170.5,8.99,3.41,3.63,0,*7D
1530720007.97,902,19.69,74172.5,8.99,3.53,3.75,0,*7A
1530720009.21,903,19.69,74174.3,8.97,3.53,3.71,0,*71
1530720010.4,904,19.63,74172.3,8.97,3.59,3.81,0,*73
1530720011.59,905,19.63,74170.3,8.97,3.59,3.81,0,*72
1530720012.77,906,19.69,74174.3,8.97,3.59,3.85,0,*75
1530720014.01,907,19.63,74168.8,8.97,3.41,3.71,0,*76
1530720015.17,908,19.69,74172.5,8.99,3.59,3.81,0,*71
1530720016.36,909,19.63,74168.5,8.97,3.59,3.81,0,*7E
1530720017.6,910,19.69,74174.5,8.97,3.49,3.71,0,*78
1530720018.83,911,19.69,74170.8,8.97,3.49,3.75,0,*7D
1530720020.05,912,19.63,74172.0,8.97,3.53,3.81,0,*7E
1530720021.2,913,19.63,74172.0,8.95,3.55,3.81,0,*7B
1530720022.41,914,19.63,74170.3,8.95,3.49,3.79,0,*76
1530720023.59,915,19.69,74174.5,8.95,3.55,3.67,0,*75
1530720024.8,916,19.69,74172.5,8.95,3.45,3.71,0,*70
1530720026.01,917,19.63,74170.5,8.95,3.53,3.67,0,*71
1530720027.19,918,19.69,74172.0,8.97,3.59,3.85,0,*7A
1530720028.38,919,19.69,74174.3,8.97,3.59,3.81,0,*7F
1530720029.56,920,19.69,74172.5,8.97,3.59,3.85,0,*71
1530720030.78,921,19.63,74172.0,8.97,3.71,3.85,0,*7A
1530720031.96,922,19.63,74168.8,8.97,3.63,3.81,0,*7E
1530720033.15,923,19.63,74172.0,8.95,3.55,3.71,0,*77
1530720034.35,924,19.69,74172.0,8.93,3.55,3.67,0,*71
1530720035.54,925,19.69,74172.0,8.95,3.55,3.71,0,*71
1530720036.73,926,19.63,74172.0,8.95,3.67,3.93,0,*7F
1530720037.91,927,19.63,74172.3,8.95,3.63,3.79,0,*7E
1530720039.12,928,19.69,74174.5,8.93,3.55,3.79,0,*72
1530720040.31,929,19.69,74172.8,8.93,3.55,3.81,0,*74
1530720041.47,930,19.69,74172.8,8.95,3.59,3.81,0,*76
1530720042.69,931,19.69,74174.3,8.93,3.67,3.93,0,*7F
1530720043.88,932,19.69,74172.8,8.95,3.67,3.81,0,*79
1530720045.07,933,19.69,74174.5,8.93,3.63,3.81,0,*7A
1530720046.31,934,19.69,74174.5,8.93,3.79,4.01,0,*79
1530720047.5,935,19.69,74172.0,8.93,3.63,3.81,0,*7C
1530720048.71,936,19.69,74172.3,8.93,3.63,3.79,0,*78
1530720049.93,937,19.63,74170.3,8.93,3.67,3.89,0,*72
1530720051.17,938,19.63,74172.3,8.93,3.79,4.01,0,*75
1530720052.41,939,19.63,74172.5,8.93,3.79,4.01,0,*74
1530720053.59,940,19.63,74170.8,8.93,3.81,4.11,0,*7C
1530720054.78,941,19.63,74168.8,8.95,3.81,3.97,0,*72
1530720056.0,942,19.69,74174.5,8.93,3.75,3.93,0,*78
1530720057.18,943,19.69,74174.3,8.95,3.81,3.97,0,*70
1530720058.42,944,19.69,74172.0,8.93,3.79,4.05,0,*7A
1530720059.66,945,19.69,74174.3,8.93,3.79,4.01,0,*7F
1530720060.9,946,19.69,74174.5,8.93,3.79,4.01,0,*7C
1530720062.09,947,19.69,74174.3,8.95,3.79,3.85,0,*70
1530720063.3,948,19.69,74174.5,8.93,3.63,3.79,0,*71
1530720064.46,949,19.69,74174.8,8.91,3.63,3.89,0,*7D
1530720065.63,950,19.69,74174.8,8.91,3.63,3.81,0,*7D
1530720066.84,951,19.69,74174.5,8.93,3.55,3.75,0,*70
1530720068.05,952,19.69,74176.3,8.91,3.53,3.75,0,*77
1530720069.23,953,19.69,74172.3,8.91,3.63,3.79,0,*79
1530720070.43,954,19.69,74174.3,8.91,3.75,3.81,0,*7E
1530720071.63,955,19.63,74170.0,8.91,3.75,3.93,0,*7C
1530720072.85,956,19.63,74174.0,8.91,3.79,4.05,0,*7B
1530720074.04,957,19.63,74174.3,8.91,3.89,4.01,0,*71
1530720075.25,958,19.63,74172.5,8.89,3.63,3.79,0,*7B
1530720076.49,959,19.63,74170.5,8.89,3.75,3.97,0,*7D
1530720077.68,960,19.63,74174.3,8.89,3.89,4.07,0,*7A
1530720078.87,961,19.63,74170.0,8.91,3.89,4.05,0,*70
1530720080.07,962,19.69,74172.0,8.91,3.79,3.93,0,*74
1530720081.31,963,19.69,74174.5,8.89,3.75,3.97,0,*74
1530720082.51,964,19.63,74172.8,8.91,3.67,3.81,0,*7E
1530720083.66,965,19.69,74172.8,8.91,3.55,3.63,0,*72
1530720084.88,966,19.69,74172.3,8.89,3.63,3.75,0,*7A
1530720086.09,967,19.63,74172.0,8.89,3.75,3.85,0,*73
1530720087.28,968,19.63,74170.5,8.91,3.81,4.01,0,*75
1530720088.52,969,19.63,74172.8,8.89,3.79,3.97,0,*72
1530720089.73,970,19.63,74172.0,8.89,3.75,3.85,0,*75
1530720090.97,971,19.69,74174.5,8.89,3.71,3.79,0,*73
1530720092.18,972,19.69,74176.0,8.89,3.71,3.85,0,*73
1530720093.4,973,19.69,74174.0,8.85,3.59,3.71,0,*7F
1530720094.59,974,19.63,74172.8,8.87,3.59,3.71,0,*7A
1530720095.77,975,19.63,74170.8,8.87,3.49,3.63,0,*79
1530720096.98,976,19.63,74172.0,8.87,3.49,3.49,0,*72
1530720098.22,977,19.63,74174.3,8.85,3.45,3.45,0,*71
1530720099.38,978,19.63,74170.0,8.87,3.55,3.59,0,*70
1530720100.59,979,19.63,74172.0,8.85,3.59,3.71,0,*75
1530720101.8,980,19.63,74174.3,8.85,3.55,3.71,0,*7F
1530720103.02,981,19.63,74172.0,8.85,3.59,3.75,0,*76
1530720104.24,982,19.63,74172.8,8.85,3.67,3.81,0,*73
1530720105.45,983,19.63,74174.0,8.85,3.49,3.55,0,*77
1530720106.69,984,19.69,74172.3,8.85,3.49,3.49,0,*7D
1530720107.92,985,19.69,74172.8,8.85,3.75,3.81,0,*77
1530720109.11,986,19.63,74172.8,8.81,3.81,3.89,0,*73
1530720110.3,987,19.63,74172.0,8.81,3.55,3.63,0,*7F
1530720111.46,988,19.69,74172.3,8.79,3.55,3.63,0,*77
1530720112.65,989,19.63,74172.5,8.79,3.63,3.67,0,*77
1530720113.87,990,19.63,74174.0,8.79,3.67,3.79,0,*74
1530720115.06,991,19.63,74174.8,8.79,3.63,3.67,0,*7E
1530720116.28,992,19.69,74176.0,8.79,3.71,3.79,0,*71
1530720117.47,993,19.63,74174.0,8.79,3.71,3.81,0,*77
1530720118.67,994,19.63,74172.8,8.79,3.71,3.81,0,*70
1530720119.89,995,19.69,74174.8,8.79,3.79,3.79,0,*7E
1530720121.09,996,19.63,74172.8,8.79,3.79,3.89,0,*72
1530720122.26,997,19.63,74174.5,8.79,3.81,3.89,0,*74
1530720123.43,998,19.69,74176.0,8.79,3.89,3.93,0,*78
1530720124.63,999,19.63,74172.8,8.81,3.93,3.93,0,*75
1530720125.85,1000,19.63,74172.5,8.79,4.01,4.01,0,*4A
1530720127.03,1001,19.63,74178.8,8.79,3.89,3.89,0,*4B
1530720128.21,1002,19.69,74174.8,8.79,3.89,3.93,0,*43
1530720129.39,1003,19.69,74176.3,8.79,3.93,3.93,0,*49
1530720130.57,1004,19.63,74174.0,8.79,3.89,3.81,0,*46
1530720131.79,1005,19.69,74174.8,8.79,3.71,3.79,0,*47
1530720133.0,1006,19.63,74174.5,8.79,3.79,3.89,0,*43
1530720134.18,1007,19.63,74174.5,8.79,3.93,3.93,0,*4D
1530720135.36,1008,19.63,74174.8,8.79,3.89,3.81,0,*4A
1530720136.56,1009,19.63,74172.0,8.79,3.89,4.01,0,*44
1530720137.78,1010,19.63,74174.0,8.79,3.79,3.79,0,*4B
1530720138.96,1011,19.69,74174.5,8.79,3.93,3.93,0,*4A
1530720140.19,1012,19.63,74172.8,8.79,4.05,4.01,0,*4D
1530720141.41,1013,19.63,74172.5,8.79,4.01,4.01,0,*48
1530720142.61,1014,19.63,74170.8,8.81,3.93,3.93,0,*48
1530720143.79,1015,19.63,74172.0,8.79,3.89,3.89,0,*4E
1530720144.99,1016,19.63,74174.5,8.79,3.67,3.63,0,*49
1530720146.16,1017,19.69,74174.5,8.79,3.55,3.55,0,*4C
1530720147.35,1018,19.63,74174.8,8.79,3.81,3.79,0,*44
1530720148.55,1019,19.63,74172.3,8.79,3.93,3.79,0,*46
1530720149.73,1020,19.69,74172.8,8.79,3.89,3.81,0,*40
1530720150.96,1021,19.63,74172.3,8.77,3.89,3.97,0,*48
1530720152.19,1022,19.63,74170.8,8.77,3.97,3.89,0,*4B
1530720153.43,1023,19.69,74176.5,8.77,3.97,3.97,0,*45
1530720154.66,1024,19.63,74176.0,8.77,3.85,3.79,0,*41
1530720155.91,1025,19.69,74174.3,8.77,3.75,3.67,0,*40
1530720157.14,1026,19.63,74172.5,8.77,3.85,3.75,0,*4F
1530720158.33,1027,19.63,74172.8,8.77,3.63,3.63,0,*41
1530720159.59,1028,19.63,74172.8,8.77,3.49,3.41,0,*46
1530720160.81,1029,19.63,74174.8,8.75,3.37,3.25,0,*4E
1530720162.06,1030,19.63,74172.5,8.77,3.41,3.37,0,*46
1530720163.31,1031,19.63,74172.8,8.75,3.75,3.67,0,*47
1530720164.53,1032,19.69,74176.5,8.75,3.85,3.75,0,*48
1530720165.77,1033,19.63,74172.0,8.75,3.79,3.67,0,*49
1530720166.97,1034,19.63,74174.5,8.75,3.63,3.59,0,*48
1530720168.19,1035,19.69,74174.0,8.75,3.79,3.63,0,*4B
1530720169.4,1036,19.63,74174.5,8.73,3.49,3.37,0,*4C
1530720170.62,1037,19.63,74172.3,8.73,3.45,3.33,0,*45
1530720171.87,1038,19.69,74174.5,8.71,3.41,3.33,0,*4C
1530720173.07,1039,19.63,74172.8,8.73,3.55,3.49,0,*47
1530720174.26,1040,19.69,74176.5,8.71,3.59,3.55,0,*4A
1530720175.44,1041,19.63,74172.3,8.71,3.55,3.55,0,*47
1530720176.68,1042,19.63,74172.8,8.71,3.53,3.53,0,*44
1530720177.9,1043,19.69,74174.8,8.71,3.67,3.55,0,*44
1530720179.1,1044,19.69,74176.3,8.73,3.71,3.59,0,*4A
1530720180.34,1045,19.63,74174.5,8.71,3.53,3.53,0,*43
1530720181.58,1046,19.63,74172.5,8.71,3.53,3.41,0,*43
1530720182.81,1047,19.63,74174.5,8.69,3.53,3.41,0,*4B
1530720184.03,1048,19.63,74172.8,8.69,3.53,3.49,0,*4C
1530720185.26,1049,19.63,74174.5,8.69,3.67,3.67,0,*46
1530720186.43,1050,19.63,74174.0,8.69,3.63,3.55,0,*4B
1530720187.66,1051,19.63,74172.3,8.69,3.37,3.37,0,*4F
1530720188.91,1052,19.63,74174.5,8.67,3.49,3.41,0,*4A
1530720190.13,1053,19.69,74176.8,8.69,3.49,3.49,0,*4D
1530720191.38,1054,19.63,74172.8,8.67,3.67,3.67,0,*44
1530720192.57,1055,19.63,74174.0,8.67,3.55,3.55,0,*45
1530720193.77,1056,19.63,74172.8,8.67,3.63,3.55,0,*43
1530720194.99,1057,19.63,74174.0,8.67,3.67,3.63,0,*43
1530720196.24,1058,19.69,74176.3,8.67,3.53,3.49,0,*43
1530720197.43,1059,19.69,74174.0,8.67,3.55,3.63,0,*4C
1530720198.65,1060,19.63,74174.0,8.67,3.63,3.75,0,*44
1530720199.91,1061,19.63,74168.0,8.67,3.67,3.75,0,*41
1530720201.16,1062,19.69,74174.0,8.67,3.67,3.67,0,*41
1530720202.39,1063,19.69,74174.5,8.67,3.67,3.63,0,*44
1530720203.61,1064,19.63,74174.5,8.65,3.49,3.49,0,*45
1530720204.81,1065,19.63,74174.5,8.65,3.59,3.49,0,*45
1530720206.04,1066,19.69,74176.0,8.65,3.49,3.49,0,*47
1530720207.21,1067,19.63,74172.5,8.65,3.59,3.59,0,*46
1530720208.38,1068,19.63,74174.3,8.65,3.63,3.59,0,*40
1530720209.6,1069,19.63,74172.3,8.63,3.63,3.53,0,*4D
1530720210.79,1070,19.63,74172.8,8.63,3.59,3.63,0,*4F
1530720211.96,1071,19.69,74176.5,8.65,3.59,3.63,0,*48
1530720213.16,1072,19.63,74172.8,8.65,3.63,3.71,0,*41
1530720214.39,1073,19.63,74172.8,8.63,3.75,3.81,0,*4E
1530720215.63,1074,19.63,74172.0,8.63,3.75,3.81,0,*49
1530720216.83,1075,19.63,74174.5,8.63,3.85,3.81,0,*47
1530720218.03,1076,19.63,74174.5,8.63,3.81,3.81,0,*40
1530720219.26,1077,19.63,74174.3,8.65,3.75,3.75,0,*47
1530720220.52,1078,19.69,74176.3,8.63,3.75,3.75,0,*4E
1530720221.72,1079,19.69,74176.8,8.63,3.81,3.81,0,*4F
1530720222.95,1080,19.69,74174.3,8.63,3.81,3.75,0,*42
1530720224.17,1081,19.63,74174.3,8.63,3.85,3.75,0,*47
1530720225.4,1082,19.63,74172.3,8.63,3.75,3.81,0,*40
1530720226.6,1083,19.63,74174.5,8.63,3.81,3.85,0,*4E
1530720227.85,1084,19.63,74174.0,8.63,3.75,3.71,0,*49
1530720229.09,1085,19.63,74174.3,8.63,3.75,3.81,0,*47
1530720230.34,1086,19.63,74172.5,8.63,3.71,3.75,0,*4B
1530720231.54,1087,19.63,74174.5,8.63,3.81,3.81,0,*4E
1530720232.77,1088,19.69,74176.5,8.63,3.81,3.75,0,*4A
1530720234.02,1089,19.63,74172.8,8.63,3.75,3.75,0,*40
1530720235.23,1090,19.63,74172.0,8.63,3.81,3.81,0,*48
1530720236.46,1091,19.63,74174.3,8.63,3.75,3.81,0,*42
1530720237.65,1092,19.63,74172.8,8.63,3.85,3.85,0,*4A
1530720238.85,1093,19.63,74170.8,8.63,3.93,3.85,0,*4C
1530720240.05,1094,19.63,74172.5,8.59,3.81,3.81,0,*45
1530720241.27,1095,19.63,74174.5,8.59,3.81,3.79,0,*43
1530720242.47,1096,19.69,74178.3,8.59,3.81,3.81,0,*47
1530720243.68,1097,19.63,74172.3,8.59,3.81,3.89,0,*4E
1530720244.9,1098,19.63,74174.5,8.59,3.79,3.81,0,*4E
1530720246.13,1099,19.63,74174.8,8.59,3.81,3.79,0,*4F
1530720247.35,1100,19.63,74174.0,8.59,3.81,3.79,0,*4E
1530720248.57,1101,19.69,74174.5,8.59,3.81,3.79,0,*4F
1530720249.79,1102,19.63,74172.3,8.59,3.81,3.79,0,*4C
1530720250.99,1103,19.63,74172.8,8.57,3.71,3.63,0,*47
1530720252.22,1104,19.63,74172.8,8.57,3.67,3.67,0,*43
1530720253.42,1105,19.63,74172.5,8.59,3.81,3.81,0,*4C
1530720254.64,1106,19.63,74172.8,8.59,3.81,3.79,0,*48
1530720255.86,1107,19.63,74172.5,8.57,3.67,3.67,0,*40
1530720257.09,1108,19.69,74174.0,8.59,3.67,3.59,0,*4C
1530720258.26,1109,19.63,74170.3,8.57,3.63,3.55,0,*4B
1530720259.49,1110,19.63,74174.0,8.57,3.67,3.75,0,*45
1530720260.71,1111,19.63,74172.0,8.57,3.79,3.75,0,*4B
1530720261.94,1112,19.63,74172.5,8.57,3.75,3.79,0,*48
1530720263.14,1113,19.63,74174.0,8.57,3.75,3.63,0,*42
1530720264.37,1114,19.63,74174.5,8.57,3.75,3.67,0,*41
1530720265.56,1115,19.69,74176.8,8.57,3.63,3.67,0,*47
1530720266.79,1116,19.63,74172.5,8.55,3.67,3.55,0,*43
1530720268.04,1117,19.63,74174.8,8.55,3.67,3.67,0,*43
1530720269.26,1118,19.63,74174.5,8.55,3.85,3.75,0,*43
1530720270.45,1119,19.63,74174.3,8.55,3.85,3.85,0,*4D
1530720271.67,1120,19.63,74174.5,8.55,4.01,3.89,0,*40
1530720272.85,1121,19.63,74172.3,8.57,3.85,3.89,0,*48
1530720274.02,1122,19.63,74170.8,8.57,3.89,3.85,0,*4B
1530720275.22,1123,19.63,74170.8,8.55,3.85,3.89,0,*48
1530720276.42,1124,19.63,74174.5,8.55,3.89,3.85,0,*4F
1530720277.61,1125,19.63,74172.3,8.57,4.01,3.89,0,*47
1530720278.79,1126,19.63,74172.5,8.57,3.89,3.89,0,*43
1530720280.01,1127,19.63,74174.3,8.55,3.85,3.79,0,*43
1530720281.2,1128,19.63,74174.8,8.55,3.85,3.85,0,*4F
1530720282.38,1129,19.63,74170.8,8.53,3.81,3.81,0,*48
1530720283.58,1130,19.63,74172.8,8.53,3.85,3.79,0,*43
1530720284.8,1131,19.63,74170.0,8.55,3.75,3.63,0,*40
1530720286.01,1132,19.63,74172.0,8.53,3.71,3.63,0,*41
1530720287.23,1133,19.63,74170.8,8.55,3.67,3.63,0,*41
1530720288.45,1134,19.63,74174.0,8.55,3.67,3.59,0,*4F
1530720289.65,1135,19.63,74172.8,8.53,3.63,3.67,0,*41
1530720290.88,1136,19.63,74172.3,8.53,3.71,3.71,0,*46
1530720292.08,1137,19.63,74174.3,8.53,3.63,3.71,0,*44
1530720293.31,1138,19.63,74172.5,8.53,3.75,3.71,0,*4C
1530720294.54,1139,19.63,74172.8,8.53,3.71,3.75,0,*4D
1530720295.77,1140,19.63,74174.8,8.53,3.71,3.71,0,*47
1530720296.99,1141,19.63,74168.8,8.53,3.33,3.33,0,*46
1530720298.24,1142,19.63,74172.3,8.51,3.37,3.41,0,*46
1530720299.5,1143,19.69,74176.8,8.51,3.41,3.41,0,*46
1530720300.72,1144,19.63,74174.5,8.49,3.49,3.37,0,*41
1530720301.91,1145,19.63,74172.8,8.49,3.33,3.29,0,*42
1530720303.16,1146,19.63,74170.3,8.51,3.37,3.33,0,*47
1530720304.38,1147,19.63,74172.8,8.49,3.33,3.37,0,*4F
1530720305.61,1148,19.63,74172.3,8.49,3.45,3.45,0,*44
1530720306.8,1149,19.63,74172.3,8.45,3.55,3.53,0,*4F
1530720307.97,1150,19.69,74176.3,8.45,3.63,3.55,0,*44
1530720309.2,1151,19.63,74174.0,8.45,3.45,3.41,0,*44
1530720310.46,1152,19.63,74174.8,8.47,3.33,3.41,0,*44
1530720311.7,1153,19.69,74176.5,8.47,3.53,3.45,0,*47
1530720312.87,1154,19.63,74172.5,8.45,3.55,3.63,0,*40
1530720314.04,1155,19.63,74174.8,8.45,3.63,3.63,0,*44
1530720315.22,1156,19.63,74172.5,8.45,3.63,3.55,0,*42
1530720316.45,1157,19.63,74170.8,8.45,3.41,3.41,0,*46
1530720317.67,1158,19.63,74172.3,8.41,3.55,3.45,0,*4C
1530720318.86,1159,19.63,74174.0,8.41,3.59,3.55,0,*40
1530720320.05,1160,19.63,74174.8,8.41,3.59,3.55,0,*4A
1530720321.24,1161,19.63,74172.3,8.41,3.59,3.55,0,*4B
1530720322.47,1162,19.69,74176.3,8.41,3.67,3.59,0,*49
1530720323.66,1163,19.63,74172.5,8.41,3.59,3.55,0,*49
1530720324.85,1164,19.63,74172.5,8.41,3.59,3.59,0,*42
1530720326.1,1165,19.63,74172.8,8.41,3.49,3.49,0,*43
1530720327.29,1166,19.63,74172.8,8.41,3.59,3.55,0,*4C
1530720328.51,1167,19.63,74174.3,8.39,3.71,3.71,0,*4E
1530720329.73,1168,19.63,74174.0,8.39,3.79,3.71,0,*49
1530720330.95,1169,19.63,74172.5,8.39,3.67,3.67,0,*40
1530720332.2,1170,19.63,74174.0,8.41,3.67,3.67,0,*47
1530720333.45,1171,19.69,74176.0,8.41,3.67,3.67,0,*46
1530720334.61,1172,19.63,74174.8,8.39,3.59,3.59,0,*4A
1530720335.77,1173,19.63,74174.5,8.39,3.55,3.55,0,*4B
1530720336.98,1174,19.63,74174.5,8.39,3.45,3.37,0,*49
1530720338.2,1175,19.63,74174.8,8.39,3.49,3.45,0,*41
1530720339.44,1176,19.63,74172.5,8.41,3.49,3.33,0,*4C
1530720340.65,1177,19.63,74168.5,8.39,3.33,3.23,0,*4E
1530720341.87,1178,19.63,74174.3,8.39,3.49,3.45,0,*4C
1530720343.06,1179,19.63,74174.5,8.39,3.55,3.37,0,*45
1530720344.27,1180,19.63,74172.3,8.35,3.53,3.53,0,*4B
1530720345.45,1181,19.63,74172.3,8.35,3.55,3.53,0,*4C
1530720346.65,1182,19.63,74172.5,8.35,3.55,3.45,0,*48
1530720347.89,1183,19.63,74174.0,8.33,3.49,3.41,0,*46
1530720349.13,1184,19.63,74168.8,8.33,3.53,3.49,0,*42
1530720350.35,1185,19.63,74174.0,8.33,3.59,3.49,0,*49
1530720351.57,1186,19.63,74174.8,8.35,3.53,3.45,0,*4A
1530720352.79,1187,19.63,74174.5,8.35,3.41,3.23,0,*48
1530720354.01,1188,19.63,74174.5,8.35,3.45,3.23,0,*43
1530720355.26,1189,19.63,74170.5,8.33,3.15,3.03,0,*43
1530720356.48,1190,19.63,74174.0,8.31,3.11,3.03,0,*4D
1530720357.68,1191,19.63,74172.3,8.31,3.25,3.15,0,*4C
1530720358.86,1192,19.63,74174.8,8.31,3.29,3.19,0,*4F
1530720360.08,1193,19.63,74168.0,8.29,3.25,3.23,0,*42
1530720361.3,1194,19.63,74172.8,8.29,3.33,3.25,0,*44
1530720362.52,1195,19.63,74174.8,8.31,3.49,3.41,0,*43
1530720363.77,1196,19.63,74172.5,8.29,3.45,3.33,0,*40
1530720364.99,1197,19.63,74174.8,8.29,3.55,3.45,0,*41
1530720366.23,1198,19.63,74170.0,8.29,3.49,3.33,0,*42
1530720367.48,1199,19.63,74172.0,8.29,3.45,3.33,0,*4F
1530720368.72,1200,19.63,74174.0,8.29,3.49,3.37,0,*44
1530720369.97,1201,19.63,74174.8,8.29,3.45,3.37,0,*49
1530720371.21,1202,19.63,74174.3,8.29,3.49,3.37,0,*46
1530720372.46,1203,19.63,74172.5,8.29,3.33,3.15,0,*4A
1530720373.71,1204,19.63,74170.0,8.29,3.11,3.07,0,*4E
1530720374.96,1205,19.63,74172.5,8.29,3.15,3.07,0,*4B
1530720376.15,1206,19.63,74174.0,8.27,3.25,3.23,0,*43
1530720377.36,1207,19.63,74172.5,8.27,3.49,3.37,0,*4D
1530720378.58,1208,19.63,74172.0,8.27,3.49,3.45,0,*47
1530720379.8,1209,19.63,74172.5,8.25,3.41,3.29,0,*46
1530720381.05,1210,19.63,74174.5,8.25,3.53,3.41,0,*43
1530720382.29,1211,19.63,74172.0,8.25,3.53,3.45,0,*46
1530720383.53,1212,19.63,74174.0,8.25,3.53,3.45,0,*45
1530720384.74,1213,19.63,74174.0,8.25,3.55,3.53,0,*45
1530720385.96,1214,19.63,74174.3,8.25,3.67,3.55,0,*45
1530720387.15,1215,19.63,74174.8,8.25,3.63,3.55,0,*40
1530720388.36,1216,19.63,74174.0,8.25,3.55,3.53,0,*40
1530720389.58,1217,19.63,74172.8,8.25,3.67,3.55,0,*46
1530720390.8,1218,19.63,74172.3,8.25,3.67,3.63,0,*4C
1530720392.02,1219,19.63,74170.8,8.27,3.75,3.67,0,*48
1530720393.27,1220,19.63,74174.0,8.25,3.79,3.75,0,*4F
1530720394.52,1221,19.63,74172.5,8.25,3.75,3.67,0,*41
1530720395.77,1222,19.63,74172.8,8.25,3.79,3.75,0,*4D
1530720396.99,1223,19.63,74172.3,8.25,3.79,3.63,0,*4B
1530720398.24,1224,19.63,74174.3,8.25,3.75,3.67,0,*44
1530720399.48,1225,19.63,74174.0,8.25,3.79,3.67,0,*49
1530720400.73,1226,19.63,74174.3,8.25,3.79,3.75,0,*49
1530720401.97,1227,19.63,74172.3,8.25,3.79,3.67,0,*4B
1530720403.22,1228,19.63,74172.3,8.25,3.53,3.45,0,*4C
1530720404.46,1229,19.63,74174.0,8.25,3.45,3.41,0,*4E
1530720405.68,1230,19.63,74174.8,8.27,3.49,3.37,0,*49
1530720406.9,1231,19.63,74174.0,8.25,3.45,3.29,0,*49
1530720408.14,1232,19.63,74174.3,8.25,3.45,3.33,0,*41
1530720409.39,1233,19.63,74176.0,8.25,3.45,3.33,0,*40
1530720410.58,1234,19.63,74172.5,8.27,3.67,3.59,0,*49
1530720411.81,1235,19.63,74174.8,8.25,3.75,3.55,0,*45
1530720413.03,1236,19.63,74172.3,8.25,3.67,3.55,0,*45
1530720414.25,1237,19.63,74174.8,8.25,3.63,3.45,0,*41
1530720415.49,1238,19.63,74174.3,8.25,3.53,3.45,0,*4D
1530720416.71,1239,19.63,74172.0,8.25,3.33,3.29,0,*40
1530720417.92,1240,19.63,74172.3,8.25,3.33,3.29,0,*4E
1530720419.17,1241,19.63,74174.5,8.21,3.41,3.37,0,*41
1530720420.41,1242,19.63,74174.0,8.21,3.53,3.49,0,*48
1530720421.63,1243,19.69,74176.0,8.21,3.71,3.63,0,*41
1530720422.82,1244,19.63,74172.3,8.23,3.75,3.63,0,*40
1530720424.02,1245,19.63,74172.8,8.23,3.81,3.71,0,*49
1530720425.21,1246,19.63,74172.8,8.23,3.75,3.63,0,*42
1530720426.37,1247,19.63,74172.5,8.23,3.81,3.63,0,*48
1530720427.57,1248,19.63,74174.5,8.23,3.71,3.63,0,*48
1530720428.73,1249,19.63,74172.5,8.23,3.63,3.59,0,*43
1530720429.91,1250,19.63,74174.3,8.23,3.63,3.53,0,*41
1530720431.16,1251,19.63,74172.3,8.21,3.71,3.53,0,*41
1530720432.37,1252,19.63,74172.8,8.23,3.49,3.41,0,*48
1530720433.59,1253,19.63,74174.3,8.23,3.49,3.37,0,*48
1530720434.78,1254,19.63,74172.5,8.23,3.71,3.63,0,*45
1530720435.96,1255,19.63,74168.5,8.23,3.63,3.53,0,*44
1530720437.18,1256,19.63,74174.8,8.23,3.49,3.41,0,*4C
1530720438.4,1257,19.63,74168.5,8.23,3.53,3.41,0,*46
1530720439.61,1258,19.63,74172.0,8.23,3.53,3.49,0,*41
1530720440.83,1259,19.63,74174.8,8.21,3.63,3.49,0,*41
1530720442.05,1260,19.63,74174.0,8.21,3.71,3.59,0,*49
1530720443.24,1261,19.63,74174.0,8.21,3.63,3.63,0,*42
1530720444.43,1262,19.63,74174.5,8.21,3.63,3.59,0,*48
1530720445.65,1263,19.63,74172.3,8.21,3.75,3.59,0,*4E
1530720446.87,1264,19.63,74172.5,8.21,3.71,3.63,0,*44
1530720448.09,1265,19.63,74174.0,8.21,3.75,3.63,0,*41
1530720449.28,1266,19.63,74172.5,8.23,3.85,3.71,0,*4C
1530720450.5,1267,19.63,74172.3,8.21,3.81,3.75,0,*4F
1530720451.69,1268,19.63,74174.8,8.21,3.81,3.63,0,*47
1530720452.91,1269,19.63,74172.5,8.21,3.81,3.71,0,*45
1530720454.13,1270,19.63,74174.5,8.21,3.63,3.49,0,*4A
1530720455.32,1271,19.63,74172.8,8.23,3.63,3.53,0,*42
1530720456.54,1272,19.63,74172.3,8.21,3.59,3.49,0,*41
1530720457.76,1273,19.63,74174.0,8.23,3.49,3.41,0,*4B
1530720458.97,1274,19.63,74174.5,8.21,3.63,3.49,0,*4E
1530720460.19,1275,19.63,74174.3,8.21,3.63,3.53,0,*44
1530720461.38,1276,19.63,74172.8,8.19,3.55,3.45,0,*4E
1530720462.58,1277,19.63,74172.5,8.19,3.55,3.45,0,*4F
1530720463.78,1278,19.63,74172.8,8.19,3.59,3.45,0,*4C
1530720465.0,1279,19.63,74174.5,8.19,3.49,3.37,0,*49
1530720466.2,1280,19.63,74176.3,8.19,3.67,3.55,0,*47
1530720467.43,1281,19.63,74170.8,8.19,3.67,3.49,0,*4B
1530720468.6,1282,19.63,74174.8,8.19,3.59,3.55,0,*48
1530720469.79,1283,19.63,74174.0,8.19,3.71,3.59,0,*4F
1530720471.02,1284,19.63,74174.8,8.19,3.71,3.67,0,*45
1530720472.21,1285,19.63,74174.3,8.19,3.81,3.79,0,*44
1530720473.44,1286,19.63,74172.8,8.17,3.81,3.67,0,*46
1530720474.64,1287,19.63,74172.0,8.19,3.81,3.71,0,*4E
1530720475.83,1288,19.63,74174.0,8.19,3.81,3.67,0,*46
1530720477.06,1289,19.63,74174.3,8.19,3.79,3.67,0,*40
1530720478.31,1290,19.63,74170.8,8.17,3.79,3.67,0,*46
1530720479.53,1291,19.63,74174.5,8.19,3.79,3.67,0,*49
1530720480.73,1292,19.63,74176.3,8.19,3.79,3.59,0,*47
1530720481.92,1293,19.63,74172.3,8.19,3.85,3.67,0,*48
1530720483.12,1294,19.63,74172.8,8.19,3.81,3.71,0,*4C
1530720484.35,1295,19.63,74174.0,8.19,3.79,3.71,0,*4A
1530720485.55,1296,19.63,74172.5,8.19,3.81,3.71,0,*4E
1530720486.74,1297,19.63,74172.5,8.19,3.81,3.67,0,*48
1530720487.97,1298,19.63,74174.0,8.19,3.79,3.71,0,*47
1530720489.2,1299,19.63,74172.8,8.19,3.79,3.79,0,*4E
1530720490.39,1300,19.63,74170.0,8.19,3.81,3.71,0,*40
1530720491.62,1301,19.63,74174.3,8.19,3.79,3.67,0,*41
1530720492.82,1302,19.63,74172.5,8.19,3.71,3.59,0,*47
1530720494.04,1303,19.63,74174.8,8.19,3.67,3.67,0,*4C
1530720495.24,1304,19.63,74172.5,8.19,3.71,3.55,0,*4D
1530720496.46,1305,19.63,74172.8,8.17,3.71,3.59,0,*4E
1530720497.63,1306,19.63,74172.5,8.19,3.59,3.55,0,*45
1530720498.83,1307,19.63,74174.0,8.19,3.67,3.59,0,*45
1530720500.03,1308,19.63,74174.5,8.17,3.59,3.59,0,*49
1530720501.23,1309,19.63,74172.3,8.19,3.71,3.59,0,*4C
1530720502.45,1310,19.63,74174.5,8.17,3.71,3.59,0,*4A
1530720503.67,1311,19.63,74172.3,8.17,3.81,3.79,0,*46
1530720504.89,1312,19.63,74174.3,8.19,3.79,3.67,0,*43
1530720506.12,1313,19.63,74172.5,8.17,3.67,3.55,0,*42
1530720507.34,1314,19.63,74174.8,8.17,3.67,3.59,0,*49
1530720508.59,1315,19.63,74174.8,8.17,3.71,3.67,0,*42
1530720509.79,1316,19.63,74174.8,8.19,3.67,3.59,0,*45
1530720511.01,1317,19.63,74174.3,8.17,3.59,3.49,0,*46
1530720512.27,1318,19.63,74172.8,8.17,3.67,3.49,0,*44
1530720513.49,1319,19.63,74172.0,8.17,3.55,3.49,0,*44
1530720514.73,1320,19.63,74174.3,8.17,3.71,3.67,0,*44
1530720515.93,1321,19.63,74172.0,8.15,3.67,3.55,0,*41
1530720517.15,1322,19.63,74174.5,8.17,3.59,3.49,0,*40
1530720518.37,1323,19.63,74172.0,8.15,3.41,3.33,0,*47
1530720519.56,1324,19.63,74174.0,8.15,3.33,3.29,0,*4E
1530720520.76,1325,19.63,74172.0,8.15,3.29,3.23,0,*4E
1530720521.97,1326,19.63,74174.5,8.15,3.19,3.15,0,*4B
1530720523.17,1327,19.63,74172.0,8.11,3.29,3.25,0,*4E
1530720524.41,1328,19.63,74174.0,8.11,3.37,3.19,0,*41
1530720525.63,1329,19.63,74172.3,8.11,3.37,3.25,0,*4F
1530720526.85,1330,19.63,74174.0,8.11,3.37,3.25,0,*47
1530720528.09,1331,19.63,74174.8,8.11,3.53,3.49,0,*4E
1530720529.31,1332,19.63,74174.0,8.11,3.49,3.29,0,*40
1530720530.56,1333,19.63,74174.3,8.11,3.49,3.41,0,*4F
1530720531.72,1334,19.63,74176.0,8.15,3.63,3.55,0,*41
1530720532.96,1335,19.63,74174.3,8.11,3.53,3.49,0,*4A
1530720534.19,1336,19.63,74172.3,8.11,3.41,3.29,0,*4C
1530720535.43,1337,19.63,74170.8,8.11,3.49,3.37,0,*4A
1530720536.62,1338,19.63,74174.0,8.09,3.71,3.63,0,*46
1530720537.85,1339,19.63,74172.5,8.09,3.75,3.79,0,*48
1530720539.08,1340,19.63,74174.0,8.09,3.79,3.75,0,*46
1530720540.33,1341,19.63,74174.3,8.11,3.79,3.71,0,*4A
1530720541.55,1342,19.63,74174.0,8.09,3.79,3.75,0,*44